Regional Weather Roundup
Issued by NWS New Orleans/Baton Rouge, LA

Home | Current Version | Previous Version | Text Only | Print | Product List | Glossary Off
Versions: 1 2 3 4 5 6 7 8 9 10 11 12 13 14 15 16 17 18 19 20 21 22 23 24 25 26 27 28 29 30 31 32 33 34 35 36 37 38 39 40 41 42 43 44 45 46 47 48 49 50

330
ASUS44 KLIX 271210
RWRLIX
NEW ORLEANS REGIONAL WEATHER ROUNDUP
NATIONAL WEATHER SERVICE NEW ORLEANS LA
600 AM CST THU NOV 27 2014

NOTE: "FAIR" INDICATES FEW OR NO CLOUDS BELOW 12,000 FEET WITH NO
      SIGNIFICANT WEATHER AND/OR OBSTRUCTIONS TO VISIBILITY.
      SKY/WX - SKY CONDITION AND SIGNIFICANT WEATHER.
      TMP - AIR TEMPERATURE.     DP    - DEWPOINT TEMPERATURE.
      RH  - RELATIVE HUMIDITY.   PRES  - PRESSURE.
      HI  - HEAT INDEX.          WCI   - WIND CHILL INDEX.

*  THESE STATIONS ARE NOT NWS OR FAA STATIONS AND ARE NOT UNDER
   NWS QUALITY CONTROL.

LAZ038-040-048-061>063-065>067-069-271300-
SOUTHEAST LOUISIANA

CITY           SKY/WX    TMP DP  RH WIND       PRES   REMARKS
N.O. AUDUBON     N/A     53  45  73 MISG        N/A
6HR MIN TEMP:  52; 6HR MAX TEMP:  56;

N.O. INTL ARPT CLEAR     51  41  68 N8        30.37R
6HR MIN TEMP:  48; 6HR MAX TEMP:  57;

N.O. LAKEFRONT CLEAR     55  44  66 NW12      30.38R
6HR MIN TEMP:  54; 6HR MAX TEMP:  60;

N.O. DOWNTOWN*   N/A     54  39  58 N5        30.37R
6HR MIN TEMP:  54; 6HR MAX TEMP:  57;

SLIDELL        CLEAR     42  37  82 CALM      30.36R
6HR MIN TEMP:  41; 6HR MAX TEMP:  56;

BATON ROUGE    CLEAR     41  37  86 NW5       30.40R
6HR MIN TEMP:  40; 6HR MAX TEMP:  52;

BOOTHVILLE     CLEAR     54  48  80 NW8       30.36R
6HR MIN TEMP:  54; 6HR MAX TEMP:  61;

BELLE CHASSE   CLEAR     51  39  63 N5        30.37R
6HR MIN TEMP:  48; 6HR MAX TEMP:  56;

BOGALUSA*        N/A     37  34  89 CALM      30.38R
6HR MIN TEMP:  37; 6HR MAX TEMP:  50;

NEW ROADS*       N/A     43  37  80 W6        30.41R
6HR MIN TEMP:  41; 6HR MAX TEMP:  49;

GONZALES*        N/A     45  44  97 CALM      30.38R
6HR MIN TEMP:  45; 6HR MAX TEMP:  54;

HAMMOND*       CLEAR     39  37  93 CALM      30.39R
HOUMA*         CLEAR     46  43  87 N9        30.38R
PORT FOURCHON* SUNNY     54  46  76 N7        30.41R

$$

MSZ070-080>082-271300-
SOUTHERN MISSISSIPPI

CITY           SKY/WX    TMP DP  RH WIND       PRES   REMARKS
MCCOMB         CLEAR     44  32  62 NW9       30.38R
6HR MIN TEMP:  43; 6HR MAX TEMP:  50;

GULFPORT       CLEAR     41  40  96 NW3       30.35R
6HR MIN TEMP:  41; 6HR MAX TEMP:  54;

BILOXI         CLEAR     47  43  86 VRB2      30.35R
6HR MIN TEMP:  46; 6HR MAX TEMP:  56;

PASCAGOULA     CLEAR     38  37  97 CALM      30.35R
6HR MIN TEMP:  37; 6HR MAX TEMP:  54;


$$

COASTAL OBSERVATIONS
LAKE AND NEARSHORE STATIONS

STATION/POSITION TIME  TEMP    WIND        PRES    WAVE
                       AIR SEA DIR/SP/G            HT/PER
                 (UTC) (F)     (DEG/KT/KT) (MB)    (FT/S)
PASCAGOULA       1200   48     330/  6/  8 1026.8
WAVELAND YACHT   1200   48     310/  7/  9 1026.9
GRAND ISLE       1200   56 59  350/ 11/ 15 1028.5
SOUTHWEST PASS   1200   60                 1028.2
NEW CANAL        1200   54 55  340/  1/  5 1028.8
SHELL BEACH      1200   55 52  330/ 12/ 15 1027.8

OFFSHORE STATIONS

STATION/POSITION TIME  TEMP    WIND        PRES    WAVE
                       AIR SEA DIR/SP/G            HT/PER
                 (UTC) (F)     (DEG/KT/KT) (MB)    (FT/S)
64 S DAUPHIN ISL 1109   62 70  350/ 17/ 21 1027.4    6/ 6

$$




USA.gov is the U.S. government's official web portal to all federal, state and local government web resources and services.